This is the latest recevied weather packets stored in our database for station/object SR2WXM. If no packets are shown the sender has not sent any weather packets the latest 10 day(s).
| Time | Temp. | Humidity | Pressure | Rain* | Wind** | Luminosity | Snow |
|---|---|---|---|---|---|---|---|
| 1777640402 | 22.78° C | 32% | 1023.7 hPa | 0 mm | - | - | - |
| 1777639502 | 22.78° C | 33% | 1023.7 hPa | 0 mm | - | - | - |
| 1777638603 | 21.67° C | 36% | 1024.3 hPa | 0 mm | - | - | - |
| 1777637702 | 22.78° C | 35% | 1024.3 hPa | 0 mm | - | - | - |
| 1777636802 | 21.67° C | 35% | 1024.7 hPa | 0 mm | - | - | - |
| 1777635902 | 20.56° C | 36% | 1024.7 hPa | 0 mm | - | - | - |
| 1777635004 | 22.78° C | 35% | 1024.7 hPa | 0 mm | - | - | - |
| 1777634103 | 20.56° C | 39% | 1024.7 hPa | 0 mm | - | - | - |
| 1777633203 | 21.67° C | 39% | 1024.7 hPa | 0 mm | - | - | - |
| 1777632302 | 20.56° C | 39% | 1025 hPa | 0 mm | - | - | - |
| 1777631403 | 20.56° C | 41% | 1025 hPa | 0 mm | - | - | - |
| 1777630502 | 20° C | 40% | 1025 hPa | 0 mm | - | - | - |
| 1777629602 | 18.89° C | 41% | 1025.4 hPa | 0 mm | - | - | - |
| 1777628703 | 18.89° C | 43% | 1025.4 hPa | 0 mm | - | - | - |
| 1777627804 | 18.89° C | 39% | 1025.4 hPa | 0 mm | - | - | - |
| 1777626902 | 18.89° C | 43% | 1025.4 hPa | 0 mm | - | - | - |
| 1777626002 | 18.89° C | 41% | 1025.4 hPa | 0 mm | - | - | - |
| 1777625102 | 18.89° C | 42% | 1025.4 hPa | 0 mm | - | - | - |
| 1777624203 | 18.89° C | 40% | 1025.4 hPa | 0 mm | - | - | - |
| 1777623302 | 16.67° C | 43% | 1025.4 hPa | 0 mm | - | - | - |
| 1777622403 | 17.78° C | 43% | 1025.4 hPa | 0 mm | - | - | - |
| 1777621503 | 15.56° C | 45% | 1025.4 hPa | 0 mm | - | - | - |
| 1777620602 | 16.67° C | 45% | 1025.4 hPa | 0 mm | - | - | - |
| 1777619702 | 15.56° C | 46% | 1025.4 hPa | 0 mm | - | - | - |
| 1777618804 | 15.56° C | 44% | 1025.4 hPa | 0 mm | - | - | - |
* Rain latest hour (hover to see other rain measurements)
** Current wind speed in m/s (hover to see current wind gust speed)